Time,TemperatureF,DewpointF,PressureIn,WindDirection,WindDirectionDegrees,WindSpeedMPH,WindSpeedGustMPH,Humidity,HourlyPrecipIn,Conditions,Clouds,dailyrainin,SoftwareType,DateUTC
2015-05-23 00:03:00,64.2,63.6,29.89,South,180,3.7,-999.0,98,-99.99,,,0.00,Acu-Link.com,2015-05-23 07:03:00,
2015-05-23 00:18:00,64.4,63.8,29.89,South,180,2.2,-999.0,98,-99.99,,,0.01,Acu-Link.com,2015-05-23 07:18:00,
2015-05-23 00:33:00,64.4,63.8,29.89,ESE,112,2.7,-999.0,98,-99.99,,,0.01,Acu-Link.com,2015-05-23 07:33:00,
2015-05-23 00:48:00,64.4,63.8,29.89,SE,135,3.2,-999.0,98,-99.99,,,0.01,Acu-Link.com,2015-05-23 07:48:00,
2015-05-23 01:03:00,64.4,63.8,29.88,SE,135,3.7,-999.0,98,-99.99,,,0.01,Acu-Link.com,2015-05-23 08:03:00,
2015-05-23 01:19:00,64.0,63.4,29.89,ESE,112,2.2,-999.0,98,-99.99,,,0.01,Acu-Link.com,2015-05-23 08:19:00,
2015-05-23 01:34:00,64.2,63.6,29.88,SE,135,4.2,-999.0,98,-99.99,,,0.01,Acu-Link.com,2015-05-23 08:34:00,
2015-05-23 01:49:00,64.0,63.4,29.88,SSW,202,2.2,-999.0,98,-99.99,,,0.01,Acu-Link.com,2015-05-23 08:49:00,
2015-05-23 02:04:00,63.7,63.1,29.89,ESE,112,2.2,-999.0,98,-99.99,,,0.01,Acu-Link.com,2015-05-23 09:04:00,
2015-05-23 02:19:00,63.3,62.7,29.88,South,180,4.2,-999.0,98,-99.99,,,0.01,Acu-Link.com,2015-05-23 09:19:00,
2015-05-23 02:34:00,63.3,62.7,29.89,SSW,202,0.0,-999.0,98,-99.99,,,0.01,Acu-Link.com,2015-05-23 09:34:00,
2015-05-23 02:49:00,63.7,63.1,29.88,SSW,202,0.0,-999.0,98,-99.99,,,0.01,Acu-Link.com,2015-05-23 09:49:00,
2015-05-23 03:04:00,63.7,63.1,29.89,SW,225,0.0,-999.0,98,-99.99,,,0.01,Acu-Link.com,2015-05-23 10:04:00,
2015-05-23 03:19:00,63.9,63.3,29.88,SW,225,0.0,-999.0,98,-99.99,,,0.01,Acu-Link.com,2015-05-23 10:19:00,
2015-05-23 03:35:00,64.0,63.4,29.88,SW,225,6.3,-999.0,98,-99.99,,,0.01,Acu-Link.com,2015-05-23 10:35:00,
2015-05-23 03:50:00,63.9,63.3,29.89,South,180,1.7,-999.0,98,-99.99,,,0.02,Acu-Link.com,2015-05-23 10:50:00,
2015-05-23 04:05:00,63.9,63.3,29.89,South,180,2.7,-999.0,98,-99.99,,,0.02,Acu-Link.com,2015-05-23 11:05:00,
2015-05-23 04:20:00,63.5,62.9,29.89,SSE,157,0.0,-999.0,98,-99.99,,,0.03,Acu-Link.com,2015-05-23 11:20:00,
2015-05-23 04:35:00,63.5,62.9,29.89,SSW,202,0.0,-999.0,98,-99.99,,,0.03,Acu-Link.com,2015-05-23 11:35:00,
2015-05-23 04:50:00,63.7,63.1,29.89,WSW,247,0.0,-999.0,98,-99.99,,,0.03,Acu-Link.com,2015-05-23 11:50:00,